BREEZE-M DEB, 34257

Orbit data source: Space-Track

BREEZE-M DEB, 34257 is space debris in HEO originally from a launch on Tue, 28 Feb 2006 UTC launched from the Tyuratam Missile And Space Complex (TTMTR). Debris objects in space refer to the collection of defunct objects orbiting the Earth. Examples of debris include non-operational satellites, rocket bodies, and fragments generated from explosions, collisions, or faulty payload assembly.

Loading next visibility...
Identifier
34257, 2006-006BY
Orbit
HEO
Country
Flag of CISCIS
Related business
Manufacturer
Khrunichev
Mission
Spacecraft
Bus & Motor
Unknown
Mass
Unknown
Launch date (UTC)
2006-02-28 (20 years ago)
Launch vehicle
Unknown
Launch site
Tyuratam Missile And Space Complex (TTMTR)
Object type
Payload
Rocket body
Debris
Shape & HBR
Unknown shape, 0.1 m
Radar Cross Section
Medium (>0.1 m² and <1 m²)

Expand to show TLE details & history
Last TLE update: 4 days ago

TLE from 4 days ago
0 BREEZE-M DEB
1 34257U 06006BY  26159.76141150  .00002765  00000-0  78772-2 0  9994
2 34257  52.1735   1.2989 4972107 111.9170 351.1329  5.34222377 39017
Epoch: 2026-06-08T18:16Z
TLE epoch observation values (Epoch: 2026-06-08T18:16:25.953Z)
Latitude
51.68797°
Longitude
-92.14956°
Altitude
886.612 km
Speed
9.004 km/s
True Right ascension
05h 16m 24s
True Declination
51° 31' 25"
Sunlit
Object was in daylight at epoch
Visualization orbit readout
Latitude
Unknown
Longitude
Unknown
Altitude
Unknown
Speed
Unknown
Apparent Right ascension
Unknown
Apparent Declination
Unknown
Sunlit
N/A
Visualization observer readout
Local Sidereal Time
23:02:23
Azimuth
Unknown
Elevation
Unknown
Doppler factor
Unknown
Orbital elements
Apogee altitude
14,317.564 km
Perigee altitude
571.838 km
Semi-major axis
13,822.838 km
Eccentricity
0.49721
Inclination
52.1735°
RAAN
1.2989°
Arg. of periapsis
111.917°
True anomaly
330.4597°
Mean anomaly
351.1329°
Eccentric anomaly
342.62627°
Mean motion
1.33551 °/min
Orbital period
269.56 mins
BSTAR
0.0078772
Loading maneuver chart data...
Computing Atmospheric mass density...
Loading historical data...
Loading historical data...
Loading historical data...
Loading historical data...
Loading historical data...
Loading historical data...
Loading historical data...

Documentation

Showing up to 5 results
|